Theta_e
310 310 310 310 310 310 311 311 311 311 312 312 312 312 313 313 313 313 314 314 313 313 312 312 315 315 316 318 319 318 311 313 315 315 315 317 314 317 317 317 317 317 317 317 317
309 309 310 310 311 311 311 312 312 312 312 312 312 312 313 313 314 314 313 312 312 312 311 312 314 316 317 318 319 315 310 312 314 314 316 316 316 316 316 316 316 315 315 316 316
309 310 310 311 311 312 312 312 312 312 312 313 313 314 315 316 316 315 312 312 312 312 312 314 316 317 316 317 319 316 313 314 317 317 316 316 315 316 315 313 315 315 316 316 315
309 310 311 312 312 312 312 312 312 313 314 316 318 319 319 319 314 313 313 313 312 312 313 313 316 316 315 315 317 317 317 317 317 318 316 315 316 316 316 316 315 316 315 315 315
311 312 312 312 312 311 312 314 316 318 319 319 318 317 316 317 319 318 315 315 313 312 312 313 315 316 314 314 314 314 314 315 316 315 315 315 314 313 314 315 316 315 314 314 314
312 312 311 311 311 313 316 318 319 318 317 316 316 316 315 313 317 318 318 316 313 312 312 313 315 315 315 314 313 313 313 314 315 315 314 313 312 314 316 316 315 315 313 313 314
311 310 311 314 317 318 318 317 316 317 317 318 318 318 316 316 316 316 317 316 313 312 312 313 315 315 314 313 314 314 313 311 312 313 312 313 313 312 316 315 315 314 312 313 314
315 316 318 318 317 317 316 317 317 318 318 319 320 318 316 316 314 314 314 314 313 313 313 313 315 315 315 314 313 312 311 312 312 313 313 312 312 312 316 315 315 312 311 311 311
318 318 317 316 316 317 317 318 318 320 320 321 318 315 315 313 312 312 312 312 312 312 312 313 315 314 313 309 309 310 310 310 312 312 313 312 311 311 315 314 313 310 310 309 308
315 315 315 316 317 318 319 320 321 321 321 320 315 316 315 313 312 311 311 311 311 311 311 312 312 308 307 307 311 311 311 310 311 312 311 311 309 309 313 313 310 308 306 306 306
315 315 316 316 318 320 321 322 321 321 320 320 317 314 317 315 314 314 313 312 311 312 310 311 308 309 308 308 309 310 311 311 310 310 311 311 310 310 308 309 306 304 304 303 302
315 316 317 318 321 322 321 322 321 320 319 320 321 321 321 320 319 315 314 312 312 310 310 310 310 310 309 309 310 310 311 310 310 310 311 310 309 306 306 305 304 303 302 301 301
316 317 319 321 322 321 321 321 321 321 318 319 319 320 320 319 319 318 314 312 310 309 309 310 312 311 311 313 313 312 312 312 313 309 309 309 309 309 305 304 302 301 300 300 300
318 319 320 322 322 321 322 322 321 320 315 317 316 315 316 316 314 314 311 312 312 311 309 311 311 312 312 313 312 313 311 311 311 310 310 308 312 309 307 304 302 300 300 300 300
321 322 323 323 322 322 322 321 321 317 323 315 311 310 310 313 310 309 311 311 312 312 311 314 311 311 312 312 310 312 310 311 310 309 309 308 309 308 306 306 302 300 299 300 300
322 321 321 323 323 323 322 321 320 318 322 312 308 309 307 308 308 308 310 310 310 309 309 310 310 309 310 310 309 308 309 308 306 306 310 308 310 311 308 307 302 300 299 300 299
322 322 322 323 323 323 322 320 321 323 317 313 309 308 308 307 308 308 308 307 309 311 311 312 310 309 310 312 308 308 309 312 313 310 313 312 310 311 305 305 302 299 299 298 299
322 322 324 324 324 322 321 321 323 319 318 312 310 309 310 308 308 308 309 310 308 311 312 315 317 310 309 312 313 308 309 311 310 313 312 311 315 312 302 301 301 300 299 299 299
323 323 323 322 322 322 321 323 323 320 317 316 314 314 314 314 312 309 308 310 311 309 315 314 315 308 308 307 309 310 311 309 310 309 314 312 308 305 302 299 299 298 299 300 299
323 322 320 321 319 320 321 322 321 317 316 317 318 317 317 318 317 311 310 311 314 309 311 313 314 312 309 309 307 309 308 311 308 307 312 311 311 310 304 301 298 297 299 300 301
321 316 317 318 318 319 321 319 316 314 315 316 317 317 316 315 316 314 315 313 309 308 311 311 311 311 310 311 310 306 308 308 311 308 306 305 309 306 305 301 299 298 301 302 303
314 312 315 315 313 312 313 313 314 313 313 313 313 314 315 312 312 311 312 311 311 310 313 311 310 307 310 308 307 308 307 307 311 309 306 309 310 305 304 301 300 301 303 303 301
314 309 312 312 313 312 310 311 311 309 310 311 311 311 310 311 313 309 308 309 310 309 311 310 307 301 305 305 307 308 308 308 308 305 304 311 308 302 300 300 301 302 303 303 300
312 307 307 310 309 310 310 311 311 309 308 310 309 309 309 309 308 309 310 309 308 310 310 309 304 304 308 303 305 305 306 305 302 299 300 307 304 303 301 300 300 300 300 301 301
306 306 306 308 310 308 309 309 310 309 308 309 309 308 310 310 309 308 308 306 305 307 305 306 304 306 304 304 304 303 303 303 303 302 301 302 300 301 299 297 299 299 299 300 296
302 302 303 304 309 308 309 308 308 309 309 308 309 308 308 309 308 306 305 305 305 304 304 301 299 298 295 299 302 301 300 299 301 302 301 301 301 300 299 297 295 295 296 299 297
300 301 302 303 304 308 308 308 308 306 304 306 307 305 306 306 304 302 302 302 302 302 302 300 296 294 299 296 294 293 294 297 296 296 296 295 296 292 294 294 294 295 293 293 292
Wind_Speed
4 3 3 3 3 3 3 3 3 4 4 5 7 7 8 9 11 13 13 3 4 5 4 3 3 2 1 2 1 0 4 1 3 1 4 10 6 5 8 6 7 6 10 13 18
6 5 5 5 5 5 5 5 5 6 6 7 8 9 10 10 12 8 1 2 4 5 5 4 5 3 2 2 2 3 3 6 5 4 2 6 3 13 4 13 20 22 18 14 16
8 7 7 7 7 7 7 8 8 8 8 8 9 9 10 11 11 2 3 4 4 5 5 8 6 4 2 4 5 5 5 4 4 4 4 7 12 4 2 6 25 26 25 21 19
10 9 9 9 9 10 9 9 9 10 10 9 9 9 10 8 3 4 4 3 3 5 6 6 7 5 3 3 6 2 10 12 7 14 8 4 6 10 10 22 24 25 19 16 15
13 12 12 12 11 11 10 9 9 10 10 10 10 9 9 6 9 10 10 9 8 8 9 7 8 6 3 3 1 3 4 8 10 16 15 15 14 13 26 23 16 18 11 13 13
15 15 14 13 12 11 10 10 10 10 10 10 10 9 8 8 9 10 10 9 8 8 9 9 4 3 3 4 2 1 5 12 13 22 17 10 7 2 13 12 14 12 13 15 14
17 16 14 13 13 12 11 11 10 10 9 9 10 10 12 15 11 9 8 6 7 8 9 11 11 6 1 2 3 4 5 7 13 6 4 1 3 6 13 18 19 14 14 9 9
18 18 16 15 13 12 11 11 10 11 11 10 11 10 8 10 9 9 10 9 8 10 10 10 8 5 3 1 5 3 2 3 3 1 1 6 7 9 12 19 20 17 7 5 6
19 19 18 15 12 11 11 11 11 12 12 12 9 7 6 7 8 8 7 6 6 8 8 7 7 3 3 4 4 3 3 5 8 2 2 3 6 11 23 19 20 7 3 6 8
19 18 17 14 12 12 10 11 11 12 13 11 11 4 10 6 7 6 6 6 4 7 7 5 3 3 3 3 5 5 4 5 6 4 3 5 8 13 22 20 14 7 11 13 14
19 18 16 13 12 12 10 10 8 5 13 10 5 4 3 8 8 8 9 8 6 4 4 4 4 7 12 10 4 3 3 6 5 6 3 6 6 14 11 3 15 17 18 18 20
21 19 17 14 13 11 10 7 7 3 8 17 22 22 17 11 6 8 11 10 6 6 6 3 7 12 3 5 5 5 4 7 7 5 1 5 12 3 10 7 12 18 18 20 22
23 20 17 15 13 12 11 10 7 3 4 8 13 10 13 16 8 11 18 9 6 6 8 8 5 4 7 4 4 6 6 4 8 5 3 3 7 2 6 14 18 18 19 20 22
25 23 18 16 13 13 15 11 6 1 2 5 5 5 9 7 4 10 19 7 4 9 7 6 7 6 3 6 6 6 5 6 3 3 4 2 4 5 4 5 10 16 19 19 20
27 25 21 20 9 18 11 11 7 3 5 3 4 6 7 6 9 4 14 6 5 5 6 7 4 4 5 8 7 7 2 2 1 3 2 3 1 6 7 5 5 10 16 16 17
30 27 22 23 22 19 14 12 8 2 9 4 6 6 5 4 4 6 5 4 1 2 2 5 1 4 7 2 4 3 4 7 4 3 2 7 7 4 5 6 7 12 15 15 15
32 29 29 31 32 24 19 15 3 6 1 5 5 5 5 5 3 5 6 5 6 4 4 1 4 2 2 3 3 4 5 3 3 2 5 3 3 6 7 0 16 18 18 15 14
35 33 36 35 35 33 24 4 10 6 6 3 5 5 7 7 5 6 6 4 6 2 3 5 4 7 4 5 6 5 7 5 6 3 4 4 5 3 4 13 23 20 17 14 12
37 36 35 36 36 32 23 7 7 6 6 8 4 4 4 5 5 4 7 5 8 10 8 6 4 1 2 2 6 4 4 3 5 2 3 4 1 1 4 6 14 17 14 11 9
39 37 32 36 32 38 13 11 5 5 4 5 9 6 8 6 7 8 8 4 4 7 2 5 2 3 1 3 3 4 5 3 2 2 5 4 5 4 8 9 7 10 15 13 10
33 18 28 31 33 20 9 5 3 4 4 4 6 4 5 6 7 6 5 2 4 4 6 5 3 3 3 5 7 1 2 2 3 5 5 2 5 3 10 14 13 17 17 16 13
19 1 28 20 4 3 4 6 6 0 5 2 3 2 5 7 7 7 9 7 12 13 8 5 4 4 7 2 3 2 6 6 5 5 3 2 8 2 8 17 22 22 17 15 16
13 2 24 17 7 5 1 2 6 7 9 8 10 7 6 8 3 7 6 2 5 7 9 7 1 2 7 5 1 4 4 3 5 3 6 4 6 1 8 12 22 11 10 17 18
16 4 4 13 6 7 7 8 8 11 4 5 5 6 4 6 5 4 4 1 2 2 4 6 3 7 9 5 3 3 3 3 5 3 3 10 6 3 5 8 10 17 17 17 20
6 6 11 5 10 6 11 8 13 7 8 15 4 8 7 6 5 6 3 2 3 3 3 4 6 4 1 3 2 4 6 8 8 6 7 13 9 17 8 7 18 19 14 14 19
4 3 4 3 15 16 9 7 8 11 9 6 7 9 9 11 8 7 7 4 5 1 2 3 1 2 3 2 5 7 12 7 12 14 10 15 21 16 18 6 8 11 12 15 20
10 8 4 6 3 8 9 14 9 7 3 3 12 6 7 6 7 6 7 7 7 8 6 5 6 3 5 4 4 8 8 17 13 10 8 11 14 2 4 6 10 13 15 14 13
Wind_Direction
243 240 242 249 254 261 270 280 291 298 305 310 313 318 320 318 316 314 310 266 244 247 243 201 184 203 160 136 101 164 60 229 237 47 295 336 5 341 329 295 293 266 281 298 299
247 249 254 260 269 277 281 286 290 295 298 302 305 310 313 317 316 313 315 112 132 131 138 154 163 158 152 170 181 106 117 227 203 160 269 293 272 309 313 305 293 294 302 303 301
248 252 259 266 270 273 279 285 287 289 292 295 298 304 309 317 321 193 153 131 139 150 157 169 180 176 193 188 196 170 190 216 266 260 286 299 302 284 268 292 296 304 315 309 299
250 252 258 264 268 272 276 279 285 288 291 294 295 297 297 303 282 195 192 202 222 247 233 218 205 178 191 217 206 168 247 245 268 289 299 286 295 300 261 277 306 312 317 321 304
255 258 259 259 262 265 270 275 279 284 288 291 289 288 284 265 252 249 243 257 264 246 227 223 201 188 186 219 268 212 283 271 268 285 287 283 267 272 281 292 301 316 344 14 5
255 255 256 257 258 261 264 267 273 280 286 289 287 282 264 242 260 250 259 257 247 222 219 209 202 185 270 248 197 245 303 293 290 281 283 260 285 327 284 306 310 314 345 345 352
252 250 250 251 255 259 260 264 270 275 279 280 278 273 259 262 260 248 248 241 235 228 217 208 216 227 179 312 344 317 315 315 281 274 225 183 315 228 301 303 294 310 341 348 348
247 246 246 248 250 252 259 266 273 277 279 280 280 268 253 256 240 245 247 245 229 226 220 213 216 239 225 291 334 324 29 326 273 138 181 149 249 272 296 297 296 329 6 47 47
246 247 245 243 243 248 256 267 272 272 272 273 268 238 255 241 229 235 232 215 205 212 214 215 211 187 135 92 357 346 230 212 306 255 126 193 252 267 289 297 297 345 79 71 78
241 241 243 241 242 249 260 271 273 266 259 259 241 245 232 218 205 197 197 180 171 163 149 158 146 88 55 110 221 215 214 239 232 267 30 256 249 261 279 298 316 158 105 87 78
237 237 236 232 233 248 261 275 266 246 226 217 219 215 197 202 205 205 206 190 163 163 151 172 116 207 208 200 184 176 214 240 258 257 225 258 277 290 341 264 115 117 109 97 84
234 233 232 225 227 244 248 235 234 235 286 247 247 249 246 241 216 199 182 175 174 190 129 62 223 231 175 173 207 238 247 259 272 260 190 292 292 40 26 42 102 112 99 94 90
230 229 227 224 225 235 232 233 239 255 265 273 239 235 229 225 220 209 187 190 176 180 194 171 222 160 172 201 186 220 202 235 234 344 295 330 293 184 60 77 79 86 93 89 85
227 224 220 219 227 224 220 215 212 301 337 251 216 214 179 167 214 182 187 184 203 204 158 234 239 188 183 239 186 277 208 228 187 113 228 44 278 304 148 84 68 88 91 91 89
225 224 216 213 208 200 210 190 177 132 282 192 164 161 161 175 136 172 189 194 189 184 123 244 190 153 173 223 157 230 99 131 169 172 74 295 299 259 132 149 131 109 108 103 93
223 224 218 217 211 203 186 169 142 95 241 189 146 166 135 181 157 127 157 177 164 173 193 243 305 181 201 146 169 111 51 37 48 101 282 215 180 263 188 183 148 142 131 119 107
222 224 222 221 218 198 185 156 137 214 238 194 187 164 176 165 174 164 163 172 159 131 230 221 224 240 179 119 55 87 70 309 335 0 231 139 145 254 321 345 155 152 142 129 117
218 222 229 232 217 196 176 170 215 195 208 155 145 129 178 156 208 185 140 200 221 174 132 184 283 172 182 189 179 173 165 165 222 215 268 328 239 290 11 90 129 137 135 133 127
221 228 221 213 207 197 173 202 209 174 186 157 91 146 224 217 149 145 201 207 206 170 180 170 257 161 172 162 134 186 176 170 106 351 283 247 62 52 74 82 129 141 147 154 151
222 213 202 199 186 184 182 209 216 202 149 150 175 158 185 200 164 173 183 211 211 177 184 216 145 239 184 105 54 151 167 81 8 171 241 272 264 207 187 179 172 170 182 179 186
224 182 186 174 184 190 196 193 185 217 167 162 181 136 193 168 188 193 206 255 177 144 137 146 125 253 123 209 187 130 196 177 170 155 180 252 257 219 175 180 183 196 198 201 216
172 165 173 174 150 133 143 161 182 140 272 63 76 99 183 201 179 205 210 210 176 154 160 192 143 179 198 292 297 216 191 168 195 223 240 169 263 336 182 175 178 195 213 225 233
143 72 168 172 182 203 242 283 201 201 197 188 198 186 192 183 203 202 207 11 187 168 165 176 204 28 342 344 266 206 199 152 107 71 207 198 242 6 162 169 192 200 259 252 231
171 141 227 207 189 190 168 197 204 210 191 170 178 151 152 190 222 205 162 316 2 144 138 140 148 175 222 186 140 187 174 141 121 140 194 227 287 146 207 197 232 285 284 258 238
157 171 173 183 204 181 186 179 201 183 212 191 214 192 166 195 185 198 147 134 14 125 92 140 193 174 52 130 155 225 207 179 201 197 200 266 233 261 220 235 272 279 264 238 207
155 129 173 162 198 183 173 206 199 194 164 211 221 189 183 202 180 184 145 181 188 142 116 21 141 88 315 230 224 264 264 202 223 243 245 253 268 267 284 234 196 213 215 211 209
212 163 199 157 164 178 206 201 213 153 215 212 210 140 197 201 138 111 123 117 161 154 164 141 135 111 254 62 53 303 225 236 249 222 226 234 245 250 244 224 236 231 220 214 210